Other Public Products
Issued by NWS Charleston, SC

Current Version | Previous Version | Graphics & Text | Print | Product List | Glossary On
Versions: 1 2 3 4 5 6 7 8 9 10 11 12 13 14 15 16 17 18 19 20 21 22 23 24 25 26 27 28 29 30 31 32 33 34 35 36 37 38 39 40 41 42 43 44 45 46 47 48 49 50
714
FPUS82 KCHS 272212
OPUCHS

TEST...KCHS/KSAV Gateway Observations...TEST
National Weather Service Charleston SC
600 PM EDT THU JUL 27 2017

NOTE: "fair" indicates few or no clouds below 12,000 feet with no
significant weather and/or obstructions to visibility.

SCZ050-WAZ558-NCZ071-TXZ119-213-PAZ071-DCZ001-FLZ074-172-MI076-
NYZ176-178-MAZ016-IL014-TNZ027-NJZ106-GAZ044-MD014-272300-

...Gateway Observations for Charleston International...

CITY           SKY/WX    TMP DP  RH WIND       PRES   REMARKS
Chas Airport   PTSUNNY   85  73  67 SW12      29.96F HX  91
Seattle        PTSUNNY   66  53  63 W9        30.17F
Charlotte      CLOUDY    86  73  65 SW5       29.96F HX  93
Dallas DFW     PTSUNNY   99  66  33 SW7       29.91F HX 103
Dallas Love    PTSUNNY  100  63  29 W7        29.91F HX 102
Philladelphia  CLOUDY    80  71  74 SE6       29.89F
Wash National  CLOUDY    84  76  76 S9        29.87F HX  93
Baltimore      CLOUDY    84  72  67 S5        29.87F
Miami          PTSUNNY   90  73  57 SE12      29.96S HX  98
Detroit        PTSUNNY   85  64  49 NE8       29.89S
Newark         CLOUDY    77  68  73 NE5       29.90F
Laguardia      CLOUDY    76  71  85 S10       29.89F
J F K          CLOUDY    75  72  90 S13       29.91F
Boston Logan   LGT RAIN  70  65  84 S12       29.87F
Ft. Lauderdale MOSUNNY   88  77  69 SE10      29.96S HX 100
Chicago O`Hare FAIR      81  59  47 NE20G25   29.94S
Chicago Midway FAIR      80  66  62 NE16      29.92F
Houston Bush   FAIR      94  73  50 S6        29.96F HX 103
Houston Hobby  FAIR      96  73  47 S14       29.96F HX 105
Nashville      CLOUDY    90  71  53 SW8       29.91F HX  96
Atlanta        PTSUNNY   81  70  69 N18G28    29.98S

$$

GAZ044-118-TXZ119-213-NCZ071-DCZ001-MDZ014-506-PAZ021-071-NJZ106-
NYZ176-178-MAZ106-OHZ011-021-055-MIZ076-KYZ091-ILZ014-INZ047-
MNZ060-ONZ431-272300-

...Gateway Observations for Savannah International...

CITY           SKY/WX    TMP DP  RH WIND       PRES   REMARKS
Savannah Arpt  PTSUNNY   87  73  62 NE7       29.95F HX  94
Atlanta        PTSUNNY   81  70  69 N18G28    29.98S
Charlotte      CLOUDY    86  73  65 SW5       29.96F HX  93
Dallas DFW     PTSUNNY   99  66  33 SW7       29.91F HX 103
Houston Bush   FAIR      94  73  50 S6        29.96F HX 103
Wash National  CLOUDY    84  76  76 S9        29.87F HX  93
Wash Dulles    CLOUDY    84  70  62 S6        29.88S
Baltimore      CLOUDY    84  72  67 S5        29.87F
Philadelphia   CLOUDY    80  71  74 SE6       29.89F
Newark         CLOUDY    77  68  73 NE5       29.90F
Laguardia      CLOUDY    76  71  85 S10       29.89F
J F K          CLOUDY    75  72  90 S13       29.91F
Boston         LGT RAIN  70  65  84 S12       29.87F
Pittsburg      PTSUNNY   82  68  62 CALM      29.89F
Akron          LGT RAIN  79  68  69 N8        29.89F
Cleveland      FAIR      83  66  56 N10       29.89F
Cincinnati     PTSUNNY   85  73  67 W13       29.88F HX  91
Columbus       CLOUDY    75  74  96 S5        29.86F
Detroit        PTSUNNY   85  64  49 NE8       29.89S
Chicago O`Hare FAIR      81  59  47 NE20G25   29.94S
Minneapolis    PTSUNNY   85  56  37 N8        30.03F
Indianapolis   PTSUNNY   79  71  76 W14       29.87F
Toronto Canada PTSUNNY   81  61  50 NE3       29.87S

$$




USA.gov is the U.S. government's official web portal to all federal, state and local government web resources and services.